| time (UTC) | temp F | wind direction | speed knots | gust knots | rain 1hr in | rain 24hr in | rain mn in | humidity % | barometer mb |
| 20260505052331 | 53 | 179 | 0.0 | 0.0 | 0.00 | 0.00 | 0.00 | 86 | 1010.7 |
| 20260505051831 | 53 | 179 | 0.0 | 0.9 | 0.00 | 0.00 | 0.00 | 86 | 1010.6 |
| 20260505051522 | 53 | 179 | 0.0 | 0.9 | 0.00 | 0.00 | 0.00 | 85 | 1009.5 |
| 20260505051333 | 53 | 179 | 0.0 | 0.9 | 0.00 | 0.00 | 0.00 | 86 | 1011.0 |
| 20260505050331 | 54 | 179 | 0.0 | 1.7 | 0.00 | 0.00 | 0.00 | 85 | 1010.8 |
| 20260505041634 | 58 | 171 | 0.0 | 0.0 | 0.00 | 0.00 | 0.00 | 81 | 1010.4 |
| 20260505041523 | 58 | 171 | 0.0 | 0.0 | 0.00 | 0.00 | 0.00 | 80 | 1008.9 |
| 20260505041133 | 58 | 171 | 0.0 | 0.0 | 0.00 | 0.00 | 0.00 | 80 | 1010.4 |
| 20260505040024 | 59 | 171 | 0.9 | 1.7 | 0.00 | 0.00 | 0.00 | 79 | 1008.8 |
| 20260505035629 | 59 | 171 | 0.0 | 0.0 | 0.00 | 0.00 | 0.00 | 79 | 1010.2 |
| 20260505034519 | 60 | 171 | 0.0 | 3.5 | 0.00 | 0.00 | 0.00 | 78 | 1008.7 |
| 20260505034236 | 60 | 171 | 1.7 | 4.3 | 0.00 | 0.00 | 0.00 | 77 | 1010.0 |
| 20260505033730 | 61 | 171 | 1.7 | 4.3 | 0.00 | 0.00 | 0.00 | 77 | 1010.1 |
| 20260505033225 | 61 | 173 | 1.7 | 3.5 | 0.00 | 0.00 | 0.00 | 76 | 1010.3 |
| 20260505033020 | 61 | 164 | 0.9 | 3.5 | 0.00 | 0.00 | 0.00 | 74 | 1008.7 |
| 20260505032216 | 62 | 90 | 0.9 | 0.9 | 0.00 | 0.00 | 0.00 | 73 | 1010.3 |
| 20260505031541 | 62 | 22 | 0.0 | 1.7 | 0.00 | 0.00 | 0.00 | 73 | 1008.6 |
| 20260505030651 | 63 | 80 | 0.0 | 0.0 | 0.00 | 0.00 | 0.00 | 75 | 1009.8 |
| 20260505030153 | 63 | 80 | 0.0 | 0.0 | 0.00 | 0.00 | 0.00 | 74 | 1009.8 |
| 20260505030031 | 63 | 80 | 0.0 | 0.0 | 0.00 | 0.00 | 0.00 | 73 | 1008.5 |
| 20260505024851 | 64 | 75 | 0.0 | 1.7 | 0.00 | 0.00 | 0.00 | 71 | 1009.8 |
| 20260505024534 | 64 | 75 | 0.0 | 1.7 | 0.00 | 0.00 | 0.00 | 70 | 1008.5 |
| 20260505024347 | 64 | 75 | 0.0 | 1.7 | 0.00 | 0.00 | 0.00 | 71 | 1009.9 |
| 20260505023349 | 65 | 83 | 0.9 | 1.7 | 0.00 | 0.00 | 0.00 | 69 | 1009.7 |
| 20260505023027 | 65 | 83 | 0.0 | 1.7 | 0.00 | 0.00 | 0.00 | 68 | 1008.3 |
| 20260505022346 | 66 | 84 | 0.0 | 0.0 | 0.00 | 0.00 | 0.00 | 68 | 1009.6 |
| 20260505021525 | 66 | 84 | 0.0 | 1.7 | 0.00 | 0.00 | 0.00 | 66 | 1008.5 |
| 20260505021144 | 66 | 84 | 0.9 | 1.7 | 0.00 | 0.00 | 0.00 | 66 | 1010.0 |
| 20260505020643 | 67 | 84 | 0.9 | 1.7 | 0.00 | 0.00 | 0.00 | 66 | 1009.9 |
| 20260505020142 | 67 | 84 | 0.9 | 2.6 | 0.00 | 0.00 | 0.00 | 65 | 1009.9 |
| 20260505020028 | 66 | 84 | 0.9 | 2.6 | 0.00 | 0.00 | 0.00 | 64 | 1008.6 |
| 20260505015639 | 67 | 87 | 0.9 | 2.6 | 0.00 | 0.00 | 0.00 | 65 | 1010.0 |
| 20260505015140 | 67 | 72 | 0.0 | 0.9 | 0.00 | 0.00 | 0.00 | 65 | 1010.3 |
| 20260505014535 | 67 | 72 | 0.0 | 1.7 | 0.00 | 0.00 | 0.00 | 64 | 1008.7 |
| 20260505014133 | 67 | 72 | 0.9 | 2.6 | 0.00 | 0.00 | 0.00 | 64 | 1010.2 |
| 20260505013632 | 67 | 72 | 1.7 | 2.6 | 0.00 | 0.00 | 0.00 | 64 | 1010.4 |
| 20260505013130 | 68 | 49 | 0.9 | 2.6 | 0.00 | 0.00 | 0.00 | 65 | 1010.4 |
| 20260505013029 | 67 | 49 | 0.9 | 2.6 | 0.00 | 0.00 | 0.00 | 64 | 1008.9 |
| 20260505012629 | 68 | 26 | 0.9 | 2.6 | 0.00 | 0.00 | 0.00 | 63 | 1010.4 |
| 20260505012129 | 69 | 18 | 0.9 | 2.6 | 0.00 | 0.00 | 0.00 | 64 | 1010.3 |
| 20260505011628 | 69 | 34 | 0.9 | 2.6 | 0.00 | 0.00 | 0.00 | 63 | 1010.5 |
| 20260505011533 | 69 | 81 | 0.0 | 2.6 | 0.00 | 0.00 | 0.00 | 63 | 1009.0 |
| 20260505011127 | 69 | 87 | 0.9 | 3.5 | 0.00 | 0.00 | 0.00 | 62 | 1010.3 |
| 20260505010627 | 69 | 32 | 1.7 | 4.3 | 0.00 | 0.00 | 0.00 | 63 | 1010.4 |
| 20260505010129 | 69 | 5 | 0.9 | 4.3 | 0.00 | 0.00 | 0.00 | 62 | 1010.4 |
| 20260505010026 | 69 | 18 | 0.9 | 3.5 | 0.00 | 0.00 | 0.00 | 61 | 1009.0 |
| 20260505005628 | 70 | 84 | 0.9 | 3.5 | 0.00 | 0.00 | 0.00 | 61 | 1010.4 |
| 20260505005122 | 70 | 65 | 0.9 | 3.5 | 0.00 | 0.00 | 0.00 | 63 | 1010.5 |
| 20260505004616 | 70 | 72 | 0.9 | 3.5 | 0.00 | 0.00 | 0.00 | 61 | 1010.4 |
| 20260505004541 | 69 | 86 | 1.7 | 3.5 | 0.00 | 0.00 | 0.00 | 61 | 1009.0 |
| 20260505004109 | 70 | 335 | 0.9 | 3.5 | 0.00 | 0.00 | 0.00 | 62 | 1010.7 |
| 20260505003609 | 70 | 99 | 1.7 | 4.3 | 0.00 | 0.00 | 0.00 | 62 | 1010.7 |
| 20260505003021 | 70 | 78 | 0.9 | 4.3 | 0.00 | 0.00 | 0.00 | 60 | 1009.1 |
| 20260505002608 | 70 | 133 | 0.9 | 3.5 | 0.00 | 0.00 | 0.00 | 60 | 1010.5 |
| 20260505002110 | 70 | 59 | 0.9 | 3.5 | 0.00 | 0.00 | 0.00 | 61 | 1010.3 |
| 20260505001520 | 70 | 53 | 0.9 | 3.5 | 0.00 | 0.00 | 0.00 | 59 | 1009.0 |
| 20260505001108 | 71 | 79 | 1.7 | 0.9 | 0.00 | 0.00 | 0.00 | 60 | 1010.4 |
| 20260505000033 | 71 | 40 | 0.9 | 3.5 | 0.00 | 0.00 | 0.00 | 59 | 1009.1 |
| 20260504235625 | 71 | 42 | 1.7 | 3.5 | 0.00 | 0.00 | 0.00 | 59 | 1010.5 |
| 20260504235125 | 71 | 344 | 1.7 | 4.3 | 0.00 | 0.00 | 0.00 | 58 | 1010.5 |
| 20260504234528 | 71 | 115 | 0.9 | 5.2 | 0.00 | 0.00 | 0.00 | 58 | 1009.0 |
| 20260504234122 | 72 | 94 | 1.7 | 5.2 | 0.00 | 0.00 | 0.00 | 57 | 1010.8 |
| 20260504233619 | 72 | 26 | 2.6 | 5.2 | 0.00 | 0.00 | 0.00 | 58 | 1010.4 |
| 20260504233120 | 72 | 332 | 1.7 | 5.2 | 0.00 | 0.00 | 0.00 | 58 | 1010.5 |
| 20260504233028 | 72 | 342 | 1.7 | 4.3 | 0.00 | 0.00 | 0.00 | 58 | 1009.1 |
| 20260504232115 | 72 | 53 | 1.7 | 5.2 | 0.00 | 0.00 | 0.00 | 57 | 1010.9 |
| 20260504231619 | 72 | 349 | 2.6 | 6.1 | 0.00 | 0.00 | 0.00 | 57 | 1011.0 |
| 20260504231525 | 71 | 23 | 1.7 | 6.1 | 0.00 | 0.00 | 0.00 | 58 | 1009.1 |
| 20260504231118 | 71 | 62 | 1.7 | 6.1 | 0.00 | 0.00 | 0.00 | 58 | 1011.0 |
| 20260504230613 | 71 | 13 | 2.6 | 5.2 | 0.00 | 0.00 | 0.00 | 58 | 1011.0 |
| 20260504230023 | 71 | 317 | 1.7 | 6.1 | 0.00 | 0.00 | 0.00 | 57 | 1009.3 |
| 20260504225418 | 72 | 355 | 2.6 | 6.1 | 0.00 | 0.00 | 0.00 | 58 | 1011.1 |
| 20260504224918 | 72 | 5 | 2.6 | 5.2 | 0.00 | 0.00 | 0.00 | 58 | 1010.7 |
| 20260504224520 | 72 | 331 | 2.6 | 5.2 | 0.00 | 0.00 | 0.00 | 56 | 1009.4 |
| 20260504224411 | 72 | 40 | 2.6 | 5.2 | 0.00 | 0.00 | 0.00 | 57 | 1010.9 |
| 20260504223909 | 72 | 355 | 2.6 | 4.3 | 0.00 | 0.00 | 0.00 | 60 | 1010.9 |
| 20260504223408 | 72 | 5 | 2.6 | 5.2 | 0.00 | 0.00 | 0.00 | 58 | 1011.2 |
| 20260504223026 | 71 | 355 | 2.6 | 5.2 | 0.00 | 0.00 | 0.00 | 57 | 1009.3 |
| 20260504222912 | 72 | 10 | 2.6 | 5.2 | 0.00 | 0.00 | 0.00 | 57 | 1011.2 |
| 20260504222408 | 72 | 346 | 2.6 | 5.2 | 0.00 | 0.00 | 0.00 | 58 | 1011.3 |
| 20260504221909 | 72 | 341 | 2.6 | 5.2 | 0.00 | 0.00 | 0.00 | 57 | 1011.3 |
| 20260504221528 | 72 | 5 | 2.6 | 5.2 | 0.00 | 0.00 | 0.00 | 58 | 1009.4 |
| 20260504221409 | 73 | 346 | 2.6 | 5.2 | 0.00 | 0.00 | 0.00 | 58 | 1011.2 |
| 20260504220909 | 73 | 25 | 2.6 | 5.2 | 0.00 | 0.00 | 0.00 | 59 | 1011.4 |
| 20260504220409 | 72 | 22 | 1.7 | 4.3 | 0.00 | 0.00 | 0.00 | 61 | 1011.4 |
| 20260504220012 | 72 | 351 | 1.7 | 4.3 | 0.00 | 0.00 | 0.00 | 61 | 1009.5 |
| 20260504215909 | 72 | 355 | 1.7 | 4.3 | 0.00 | 0.00 | 0.00 | 61 | 1011.4 |
| 20260504215409 | 72 | 24 | 1.7 | 4.3 | 0.00 | 0.00 | 0.00 | 60 | 1011.5 |
| 20260504214909 | 72 | 346 | 1.7 | 5.2 | 0.00 | 0.00 | 0.00 | 62 | 1011.4 |
| 20260504214504 | 71 | 15 | 1.7 | 5.2 | 0.00 | 0.00 | 0.00 | 62 | 1009.7 |
| 20260504214410 | 71 | 355 | 1.7 | 5.2 | 0.00 | 0.00 | 0.00 | 62 | 1011.4 |
| 20260504213852 | 72 | 350 | 0.9 | 4.3 | 0.00 | 0.00 | 0.00 | 61 | 1011.6 |
| 20260504213353 | 71 | 10 | 1.7 | 3.5 | 0.00 | 0.00 | 0.00 | 60 | 1011.5 |
| 20260504213005 | 70 | 355 | 1.7 | 4.3 | 0.00 | 0.00 | 0.00 | 59 | 1009.7 |
| 20260504212853 | 71 | 351 | 1.7 | 4.3 | 0.00 | 0.00 | 0.00 | 62 | 1011.5 |
| 20260504212352 | 71 | 338 | 1.7 | 4.3 | 0.00 | 0.00 | 0.00 | 63 | 1011.6 |
| 20260504211855 | 70 | 0 | 1.7 | 3.5 | 0.00 | 0.00 | 0.00 | 62 | 1011.7 |
| 20260504211520 | 70 | 39 | 0.0 | 5.2 | 0.00 | 0.00 | 0.00 | 62 | 1009.9 |
| 20260504211354 | 70 | 39 | 2.6 | 5.2 | 0.00 | 0.00 | 0.00 | 63 | 1011.7 |
| 20260504210855 | 70 | 355 | 3.5 | 5.2 | 0.00 | 0.00 | 0.00 | 60 | 1011.7 |
| 20260504210022 | 71 | 355 | 2.6 | 4.3 | 0.00 | 0.00 | 0.00 | 62 | 1009.8 |
| 20260504205353 | 72 | 5 | 2.6 | 5.2 | 0.00 | 0.00 | 0.00 | 61 | 1011.5 |
| 20260504204855 | 71 | 59 | 2.6 | 5.2 | 0.00 | 0.00 | 0.00 | 61 | 1011.5 |
| 20260504204516 | 70 | 355 | 1.7 | 4.3 | 0.00 | 0.00 | 0.00 | 59 | 1009.7 |
| 20260504204354 | 71 | 0 | 2.6 | 4.3 | 0.00 | 0.00 | 0.00 | 62 | 1011.5 |
| 20260504203854 | 71 | 5 | 1.7 | 4.3 | 0.00 | 0.00 | 0.00 | 61 | 1011.5 |
| 20260504203355 | 71 | 26 | 2.6 | 4.3 | 0.00 | 0.00 | 0.00 | 60 | 1011.5 |
| 20260504203009 | 71 | 349 | 1.7 | 4.3 | 0.00 | 0.00 | 0.00 | 60 | 1009.7 |
| 20260504202855 | 71 | 343 | 1.7 | 4.3 | 0.00 | 0.00 | 0.00 | 58 | 1011.5 |
| 20260504202355 | 72 | 332 | 1.7 | 3.5 | 0.00 | 0.00 | 0.00 | 60 | 1011.6 |
| 20260504201853 | 71 | 32 | 2.6 | 5.2 | 0.00 | 0.00 | 0.00 | 59 | 1011.7 |
| 20260504201508 | 71 | 338 | 1.7 | 6.1 | 0.00 | 0.00 | 0.00 | 59 | 1009.8 |
| 20260504201353 | 71 | 27 | 3.5 | 6.1 | 0.00 | 0.00 | 0.00 | 59 | 1011.6 |
| 20260504200853 | 72 | 344 | 2.6 | 6.1 | 0.00 | 0.00 | 0.00 | 58 | 1011.6 |
| 20260504200352 | 73 | 0 | 1.7 | 4.3 | 0.00 | 0.00 | 0.00 | 58 | 1011.8 |
| 20260504200007 | 71 | 48 | 1.7 | 4.3 | 0.00 | 0.00 | 0.00 | 60 | 1009.8 |
| 20260504195352 | 71 | 5 | 3.5 | 5.2 | 0.00 | 0.00 | 0.00 | 59 | 1011.6 |
| 20260504194853 | 71 | 336 | 3.5 | 5.2 | 0.00 | 0.00 | 0.00 | 57 | 1011.6 |
| 20260504194525 | 71 | 342 | 3.5 | 5.2 | 0.00 | 0.00 | 0.00 | 57 | 1009.7 |
| 20260504194353 | 72 | 348 | 2.6 | 5.2 | 0.00 | 0.00 | 0.00 | 58 | 1011.8 |
| 20260504193854 | 72 | 339 | 2.6 | 4.3 | 0.00 | 0.00 | 0.00 | 59 | 1011.8 |
| 20260504193353 | 72 | 349 | 2.6 | 7.0 | 0.00 | 0.00 | 0.00 | 56 | 1011.8 |
| 20260504193019 | 72 | 5 | 2.6 | 7.0 | 0.00 | 0.00 | 0.00 | 54 | 1009.8 |
| 20260504192853 | 73 | 346 | 1.7 | 7.0 | 0.00 | 0.00 | 0.00 | 56 | 1011.8 |
| 20260504192354 | 73 | 355 | 2.6 | 4.3 | 0.00 | 0.00 | 0.00 | 58 | 1011.5 |
| 20260504191515 | 72 | 337 | 1.7 | 4.3 | 0.00 | 0.00 | 0.00 | 56 | 1009.8 |
| 20260504191258 | 72 | 341 | 1.7 | 4.3 | 0.00 | 0.00 | 0.00 | 56 | 1011.8 |
| 20260504190755 | 72 | 54 | 2.6 | 7.0 | 0.00 | 0.00 | 0.00 | 57 | 1011.3 |
| 20260504190253 | 72 | 349 | 2.6 | 7.0 | 0.00 | 0.00 | 0.00 | 57 | 1011.3 |
| 20260504190012 | 72 | 346 | 3.5 | 7.0 | 0.00 | 0.00 | 0.00 | 56 | 1009.7 |
| 20260504185751 | 72 | 29 | 1.7 | 4.3 | 0.00 | 0.00 | 0.00 | 59 | 1011.7 |
| 20260504185254 | 72 | 49 | 1.7 | 2.6 | 0.00 | 0.00 | 0.00 | 56 | 1011.3 |
| 20260504184511 | 70 | 75 | 1.7 | 3.5 | 0.00 | 0.00 | 0.00 | 59 | 1009.7 |
| 20260504184250 | 70 | 15 | 1.7 | 0.9 | 0.00 | 0.00 | 0.00 | 59 | 1011.4 |
| 20260504183027 | 68 | 0 | 2.6 | 4.3 | 0.00 | 0.00 | 0.00 | 61 | 1012.3 |
| 20260504183024 | 67 | 352 | 1.7 | 4.3 | 0.00 | 0.00 | 0.00 | 60 | 1010.0 |
| 20260504182527 | 67 | 0 | 2.6 | 2.6 | 0.00 | 0.00 | 0.00 | 60 | 1011.7 |
| 20260504181522 | 67 | 360 | 2.6 | 7.0 | 0.00 | 0.00 | 0.00 | 60 | 1010.1 |
| 20260504181004 | 67 | 15 | 3.5 | 7.0 | 0.00 | 0.00 | 0.00 | 61 | 1011.7 |
| 20260504180503 | 68 | 36 | 2.6 | 6.1 | 0.00 | 0.00 | 0.00 | 60 | 1011.7 |
| 20260504180021 | 68 | 345 | 1.7 | 5.2 | 0.00 | 0.00 | 0.00 | 59 | 1010.0 |
| 20260504180002 | 68 | 5 | 2.6 | 5.2 | 0.00 | 0.00 | 0.00 | 60 | 1011.7 |
| 20260504175500 | 68 | 355 | 2.6 | 5.2 | 0.00 | 0.00 | 0.00 | 59 | 1011.5 |
| 20260504175001 | 69 | 5 | 1.7 | 5.2 | 0.00 | 0.00 | 0.00 | 59 | 1011.4 |
| 20260504174519 | 69 | 36 | 0.0 | 4.3 | 0.00 | 0.00 | 0.00 | 60 | 1009.9 |
| 20260504174500 | 69 | 36 | 1.7 | 4.3 | 0.00 | 0.00 | 0.00 | 60 | 1011.5 |
| 20260504173958 | 69 | 309 | 1.7 | 3.5 | 0.00 | 0.00 | 0.00 | 59 | 1011.3 |
| 20260504173459 | 69 | 34 | 1.7 | 5.2 | 0.00 | 0.00 | 0.00 | 59 | 1011.3 |
| 20260504173013 | 69 | 348 | 2.6 | 5.2 | 0.00 | 0.00 | 0.00 | 59 | 1009.9 |
| 20260504172956 | 69 | 28 | 1.7 | 5.2 | 0.00 | 0.00 | 0.00 | 59 | 1011.5 |
| 20260504171943 | 69 | 14 | 1.7 | 3.5 | 0.00 | 0.00 | 0.00 | 59 | 1011.6 |
| 20260504171512 | 69 | 32 | 0.9 | 3.5 | 0.00 | 0.00 | 0.00 | 58 | 1010.0 |
| 20260504171443 | 69 | 31 | 1.7 | 3.5 | 0.00 | 0.00 | 0.00 | 58 | 1011.9 |
| 20260504170941 | 69 | 65 | 1.7 | 3.5 | 0.00 | 0.00 | 0.00 | 58 | 1011.5 |
| 20260504170435 | 69 | 35 | 1.7 | 5.2 | 0.00 | 0.00 | 0.00 | 58 | 1011.6 |
| 20260504160404 | 69 | 20 | 1.7 | 5.2 | 0.00 | 0.00 | 0.00 | 54 | 1011.4 |
| 20260504150904 | 69 | 291 | 1.7 | 5.2 | 0.00 | 0.00 | 0.00 | 51 | 1011.4 |
| 20260504150405 | 69 | 330 | 2.6 | 7.0 | 0.00 | 0.00 | 0.00 | 54 | 1011.2 |
| 20260504140903 | 61 | 315 | 0.0 | 1.7 | 0.00 | 0.00 | 0.00 | 69 | 1010.8 |
| 20260504140403 | 60 | 313 | 0.0 | 1.7 | 0.00 | 0.00 | 0.00 | 70 | 1010.7 |
| 20260504110332 | 55 | 185 | 0.9 | 3.5 | 0.00 | 0.00 | 0.00 | 69 | 1009.6 |
| 20260504100420 | 56 | 206 | 0.0 | 0.0 | 0.00 | 0.00 | 0.00 | 67 | 1010.0 |
| 20260504081522 | 58 | 188 | 1.7 | 4.3 | 0.00 | 0.00 | 0.00 | 64 | 1008.4 |
| 20260504080119 | 58 | 196 | 2.6 | 3.5 | 0.00 | 0.00 | 0.00 | 65 | 1009.9 |
| 20260504060108 | 59 | 184 | 1.7 | 3.5 | 0.00 | 0.00 | 0.00 | 63 | 1010.3 |